Flag for Tunisia Weather past 2 weeks in Kairouan, Tunisia

Now
68 °F

Clear.


Feels Like: 68 °F
Forecast: 60 / 79 °F
Wind: No wind

Location: Kairouan Airport

Current Time: Apr 19, 2015 at 1:05:38 AM

Latest Report: Apr 19, 2015 at 12:00 AM


Visibility: 10 mi

Pressure: 29.92 "Hg

Humidity: 53%

Dew point: 50 °F

Location of KairouanLocation

Historic Weather in Kairouan — Graph

°F

Kairouan temperature yesterday

Maximum temperature yesterday: 79 °F (at 1:00 PM)
Minimum temperature yesterday: 57 °F (at 6:00 AM)
Average temperature yesterday: 69 °F

Past Weeks' High & Low Weather Summary

 TemperatureHumidityPressure
High93 °F (Apr 17, 2:00 PM)100% (Apr 13, 5:00 AM)30.42 "Hg (Apr 13, 5:00 AM)
Low46 °F (Apr 8, 2:00 AM)11% (Apr 17, 2:00 PM)29.74 "Hg (Apr 4, 5:00 PM)
Average64 °F51%30.17 "Hg
* Reported Midnight between Apr 3 and Apr 4 — Midnight between Apr 18 and Apr 19, Kairouan, Weather by CustomWeather, © 2015

Note: Actual official high and low records may vary slightly from our data, if they occured in-between our weather recording intervals... More about our weather records

Advertising

Kairouan weather history for previous 24 hours

 ConditionsComfort  
Time TempWeatherWind HumidityBarometerVisibility
12:00 AM
Sun, Apr 19
68 °FClear.No wind53%29.92 "Hg10 mi
11:00 PM
Sat, Apr 18
68 °FClear.No wind53%29.92 "Hg10 mi
10:00 PM68 °FClear.No wind49%29.92 "Hg10 mi
9:00 PM68 °FClear.No wind49%29.92 "Hg10 mi
8:00 PM70 °FClear.No wind43%29.89 "Hg10 mi
7:00 PM73 °FClear.No wind38%29.89 "Hg10 mi
6:00 PM75 °FPassing clouds.2 mph39%29.89 "HgN/A
5:00 PM79 °FPassing clouds.No wind30%29.92 "HgN/A
4:00 PM79 °FPassing clouds.No wind30%29.92 "HgN/A
3:00 PM79 °FPassing clouds.No wind28%29.92 "HgN/A
2:00 PM79 °FPassing clouds.No wind28%29.95 "HgN/A
1:00 PM79 °FPassing clouds.1 mph30%30.01 "HgN/A
12:00 PM77 °FPassing clouds.No wind32%30.01 "HgN/A
11:00 AM75 °FPassing clouds.No wind36%30.04 "HgN/A
10:00 AM73 °FPassing clouds.No wind41%30.04 "HgN/A
9:00 AM70 °FSunny.No wind53%30.04 "Hg10 mi
8:00 AM63 °FSunny.No wind73%30.04 "Hg10 mi
7:00 AM59 °FSunny.No wind82%30.04 "Hg10 mi
6:00 AM57 °FSunny.No wind88%30.01 "Hg10 mi
5:00 AM59 °FClear.No wind82%30.01 "Hg5 mi
4:00 AM61 °FClear.No wind83%30.04 "Hg5 mi
3:00 AM61 °FClear.No wind83%30.04 "Hg10 mi
2:00 AM61 °FCool.No wind88%30.04 "HgN/A
1:00 AM61 °FCool.No wind88%30.07 "HgN/A
Weather by CustomWeather, © 2015

See weather overviewHow to use our weather pages